| time (UTC) | temp F | wind direction | speed MPH | gust MPH | rain 1hr in | rain 24hr in | rain mn in | humidity % | barometer mb |
| 20260506134457 | 46 | 132 | 2.0 | 5.0 | 0.00 | 0.00 | 0.00 | 68 | 1011.1 |
| 20260506133957 | 46 | 68 | 3.0 | 5.0 | 0.00 | 0.00 | 0.00 | 67 | 1011.0 |
| 20260506133458 | 46 | 91 | 1.0 | 4.0 | 0.00 | 0.00 | 0.00 | 69 | 1011.0 |
| 20260506132957 | 45 | 316 | 1.0 | 6.0 | 0.00 | 0.00 | 0.00 | 68 | 1011.1 |
| 20260506132458 | 45 | 338 | 1.0 | 5.0 | 0.00 | 0.00 | 0.00 | 69 | 1011.0 |
| 20260506131957 | 45 | 95 | 2.0 | 5.0 | 0.00 | 0.00 | 0.00 | 69 | 1011.0 |
| 20260506131457 | 44 | 73 | 3.0 | 5.0 | 0.00 | 0.00 | 0.00 | 69 | 1011.1 |
| 20260506130958 | 44 | 45 | 2.0 | 5.0 | 0.00 | 0.00 | 0.00 | 70 | 1011.2 |
| 20260506130457 | 43 | 29 | 1.0 | 5.0 | 0.00 | 0.00 | 0.00 | 70 | 1011.3 |
| 20260506125957 | 43 | 77 | 2.0 | 5.0 | 0.00 | 0.00 | 0.00 | 71 | 1011.3 |
| 20260506125457 | 43 | 76 | 2.0 | 5.0 | 0.00 | 0.00 | 0.00 | 71 | 1011.2 |
| 20260506121956 | 38 | 83 | 2.0 | 4.0 | 0.00 | 0.00 | 0.00 | 80 | 1010.9 |
| 20260506121456 | 37 | 351 | 0.0 | 4.0 | 0.00 | 0.00 | 0.00 | 81 | 1010.8 |
| 20260506120957 | 37 | 49 | 1.0 | 5.0 | 0.00 | 0.00 | 0.00 | 81 | 1010.7 |
| 20260506120456 | 36 | 73 | 1.0 | 5.0 | 0.00 | 0.00 | 0.00 | 82 | 1010.6 |
| 20260506115957 | 36 | 67 | 2.0 | 4.0 | 0.00 | 0.00 | 0.00 | 82 | 1010.6 |
| 20260506115457 | 35 | 15 | 1.0 | 3.0 | 0.00 | 0.00 | 0.00 | 82 | 1010.4 |
| 20260506114957 | 35 | 41 | 0.0 | 2.0 | 0.00 | 0.00 | 0.00 | 81 | 1010.3 |
| 20260506114457 | 35 | 309 | 0.0 | 2.0 | 0.00 | 0.00 | 0.00 | 81 | 1010.2 |
| 20260506113957 | 35 | 309 | 0.0 | 2.0 | 0.00 | 0.00 | 0.00 | 81 | 1010.1 |
| 20260506113457 | 34 | 309 | 0.0 | 2.0 | 0.00 | 0.00 | 0.00 | 81 | 1009.9 |
| 20260506112959 | 34 | 313 | 0.0 | 1.0 | 0.00 | 0.00 | 0.00 | 80 | 1009.8 |
| 20260506112457 | 34 | 311 | 0.0 | 1.0 | 0.00 | 0.00 | 0.00 | 80 | 1009.9 |
| 20260506111956 | 34 | 316 | 0.0 | 1.0 | 0.00 | 0.00 | 0.00 | 79 | 1009.8 |
| 20260506111456 | 34 | 305 | 0.0 | 0.0 | 0.00 | 0.00 | 0.00 | 79 | 1009.6 |
| 20260506110956 | 34 | 305 | 0.0 | 2.0 | 0.00 | 0.00 | 0.00 | 79 | 1009.6 |
| 20260506110457 | 34 | 305 | 0.0 | 2.0 | 0.00 | 0.00 | 0.00 | 78 | 1009.6 |
| 20260506105957 | 34 | 291 | 0.0 | 1.0 | 0.00 | 0.00 | 0.00 | 78 | 1009.7 |
| 20260506105457 | 35 | 291 | 0.0 | 1.0 | 0.00 | 0.00 | 0.00 | 78 | 1009.8 |
| 20260506104956 | 35 | 291 | 0.0 | 2.0 | 0.00 | 0.00 | 0.00 | 78 | 1009.7 |
| 20260506104456 | 35 | 291 | 0.0 | 2.0 | 0.00 | 0.00 | 0.00 | 78 | 1009.7 |
| 20260506100458 | 36 | 311 | 0.0 | 1.0 | 0.00 | 0.00 | 0.00 | 75 | 1009.3 |
| 20260506095956 | 36 | 311 | 0.0 | 2.0 | 0.00 | 0.00 | 0.00 | 75 | 1009.2 |
| 20260506095457 | 37 | 311 | 1.0 | 2.0 | 0.00 | 0.00 | 0.00 | 74 | 1009.1 |
| 20260506094957 | 37 | 300 | 1.0 | 2.0 | 0.00 | 0.00 | 0.00 | 74 | 1009.1 |
| 20260506094456 | 37 | 286 | 0.0 | 3.0 | 0.00 | 0.00 | 0.00 | 74 | 1009.1 |
| 20260506093956 | 37 | 287 | 1.0 | 3.0 | 0.00 | 0.00 | 0.00 | 74 | 1009.0 |
| 20260506093457 | 37 | 303 | 1.0 | 3.0 | 0.00 | 0.00 | 0.00 | 74 | 1008.9 |
| 20260506092956 | 37 | 314 | 0.0 | 3.0 | 0.00 | 0.00 | 0.00 | 74 | 1008.7 |
| 20260506092457 | 37 | 315 | 0.0 | 3.0 | 0.00 | 0.00 | 0.00 | 73 | 1008.5 |
| 20260506091956 | 37 | 312 | 0.0 | 3.0 | 0.00 | 0.00 | 0.00 | 73 | 1008.5 |
| 20260506091457 | 38 | 311 | 1.0 | 2.0 | 0.00 | 0.00 | 0.00 | 73 | 1008.5 |
| 20260506090956 | 38 | 314 | 0.0 | 2.0 | 0.00 | 0.00 | 0.00 | 73 | 1008.5 |
| 20260506090456 | 38 | 287 | 0.0 | 1.0 | 0.00 | 0.00 | 0.00 | 73 | 1008.5 |
| 20260506085957 | 38 | 286 | 0.0 | 2.0 | 0.00 | 0.00 | 0.00 | 72 | 1008.4 |
| 20260506085456 | 38 | 286 | 0.0 | 2.0 | 0.00 | 0.00 | 0.00 | 73 | 1008.4 |
| 20260506084956 | 38 | 311 | 0.0 | 2.0 | 0.00 | 0.00 | 0.00 | 73 | 1008.5 |
| 20260506084457 | 38 | 311 | 0.0 | 2.0 | 0.00 | 0.00 | 0.00 | 73 | 1008.5 |
| 20260506083958 | 38 | 310 | 0.0 | 2.0 | 0.00 | 0.00 | 0.00 | 73 | 1008.4 |
| 20260506083456 | 38 | 311 | 0.0 | 0.0 | 0.00 | 0.00 | 0.00 | 74 | 1008.4 |
| 20260506082957 | 38 | 311 | 0.0 | 0.0 | 0.00 | 0.00 | 0.00 | 74 | 1008.4 |
| 20260506082457 | 38 | 302 | 0.0 | 0.0 | 0.00 | 0.00 | 0.00 | 74 | 1008.4 |
| 20260506081958 | 38 | 302 | 0.0 | 0.0 | 0.00 | 0.00 | 0.00 | 74 | 1008.4 |
| 20260506081457 | 38 | 302 | 0.0 | 1.0 | 0.00 | 0.00 | 0.00 | 74 | 1008.4 |
| 20260506080958 | 38 | 302 | 0.0 | 2.0 | 0.00 | 0.00 | 0.00 | 74 | 1008.6 |
| 20260506080457 | 38 | 302 | 1.0 | 2.0 | 0.00 | 0.00 | 0.00 | 74 | 1008.5 |
| 20260506073456 | 39 | 302 | 0.0 | 0.0 | 0.00 | 0.00 | 0.00 | 72 | 1008.6 |
| 20260506072957 | 39 | 302 | 0.0 | 0.0 | 0.00 | 0.00 | 0.00 | 72 | 1008.5 |
| 20260506072456 | 39 | 302 | 0.0 | 1.0 | 0.00 | 0.00 | 0.00 | 72 | 1008.5 |
| 20260506071956 | 39 | 302 | 0.0 | 1.0 | 0.00 | 0.00 | 0.00 | 71 | 1008.7 |
| 20260506071456 | 40 | 302 | 0.0 | 0.0 | 0.00 | 0.00 | 0.00 | 71 | 1008.6 |
| 20260506070957 | 40 | 302 | 0.0 | 0.0 | 0.00 | 0.00 | 0.00 | 71 | 1008.4 |
| 20260506070456 | 40 | 302 | 0.0 | 0.0 | 0.00 | 0.00 | 0.00 | 70 | 1008.5 |
| 20260506062457 | 41 | 302 | 0.0 | 1.0 | 0.00 | 0.00 | 0.00 | 69 | 1008.8 |
| 20260506061956 | 41 | 302 | 0.0 | 1.0 | 0.00 | 0.00 | 0.00 | 69 | 1008.7 |
| 20260506061456 | 41 | 302 | 0.0 | 1.0 | 0.00 | 0.00 | 0.00 | 69 | 1008.7 |
| 20260506060957 | 41 | 295 | 0.0 | 1.0 | 0.00 | 0.00 | 0.00 | 69 | 1008.8 |
| 20260506060456 | 41 | 295 | 0.0 | 0.0 | 0.00 | 0.00 | 0.00 | 69 | 1008.8 |
| 20260506050956 | 42 | 266 | 0.0 | 2.0 | 0.00 | 0.00 | 0.00 | 67 | 1008.6 |
| 20260506050456 | 43 | 262 | 0.0 | 2.0 | 0.00 | 0.00 | 0.00 | 66 | 1008.8 |
| 20260506044957 | 43 | 313 | 1.0 | 4.0 | 0.00 | 0.00 | 0.00 | 66 | 1008.4 |
| 20260506044457 | 43 | 340 | 1.0 | 4.0 | 0.00 | 0.00 | 0.00 | 65 | 1008.2 |
| 20260506043957 | 43 | 299 | 1.0 | 2.0 | 0.00 | 0.00 | 0.00 | 66 | 1008.1 |
| 20260506043458 | 43 | 302 | 0.0 | 1.0 | 0.00 | 0.00 | 0.00 | 66 | 1008.2 |
| 20260506042957 | 43 | 299 | 0.0 | 2.0 | 0.00 | 0.00 | 0.00 | 65 | 1008.1 |
| 20260506042457 | 43 | 299 | 0.0 | 2.0 | 0.00 | 0.00 | 0.00 | 66 | 1008.1 |
| 20260506041957 | 43 | 297 | 1.0 | 3.0 | 0.00 | 0.00 | 0.00 | 66 | 1008.3 |
| 20260506041457 | 43 | 288 | 1.0 | 3.0 | 0.00 | 0.00 | 0.00 | 65 | 1008.3 |
| 20260506040957 | 43 | 292 | 0.0 | 2.0 | 0.00 | 0.00 | 0.00 | 65 | 1008.3 |
| 20260506040458 | 43 | 266 | 0.0 | 3.0 | 0.00 | 0.00 | 0.00 | 65 | 1008.3 |
| 20260506035958 | 43 | 266 | 1.0 | 3.0 | 0.00 | 0.00 | 0.00 | 65 | 1008.1 |
| 20260506035457 | 43 | 271 | 0.0 | 2.0 | 0.00 | 0.00 | 0.00 | 65 | 1008.1 |
| 20260506034957 | 43 | 271 | 0.0 | 2.0 | 0.00 | 0.00 | 0.00 | 64 | 1008.1 |
| 20260506034458 | 43 | 326 | 0.0 | 3.0 | 0.00 | 0.00 | 0.00 | 64 | 1007.8 |
| 20260506033957 | 43 | 315 | 0.0 | 0.0 | 0.00 | 0.00 | 0.00 | 64 | 1007.9 |
| 20260506033457 | 44 | 315 | 0.0 | 0.0 | 0.00 | 0.00 | 0.00 | 63 | 1008.0 |
| 20260506032957 | 44 | 315 | 0.0 | 1.0 | 0.00 | 0.00 | 0.00 | 63 | 1008.1 |
| 20260506032457 | 44 | 315 | 0.0 | 2.0 | 0.00 | 0.00 | 0.00 | 63 | 1008.3 |
| 20260506031957 | 44 | 317 | 0.0 | 2.0 | 0.00 | 0.00 | 0.00 | 62 | 1008.2 |
| 20260506031457 | 44 | 311 | 0.0 | 1.0 | 0.00 | 0.00 | 0.00 | 61 | 1008.3 |
| 20260506030958 | 44 | 311 | 0.0 | 1.0 | 0.00 | 0.00 | 0.00 | 61 | 1008.4 |
| 20260506030458 | 45 | 311 | 0.0 | 2.0 | 0.00 | 0.00 | 0.00 | 60 | 1008.1 |
| 20260506025957 | 45 | 311 | 0.0 | 2.0 | 0.00 | 0.00 | 0.00 | 60 | 1008.1 |
| 20260506025458 | 45 | 307 | 0.0 | 0.0 | 0.00 | 0.00 | 0.00 | 60 | 1007.9 |
| 20260506024957 | 45 | 307 | 0.0 | 0.0 | 0.00 | 0.00 | 0.00 | 59 | 1008.0 |
| 20260506024457 | 45 | 307 | 0.0 | 0.0 | 0.00 | 0.00 | 0.00 | 59 | 1008.0 |
| 20260506023957 | 46 | 307 | 0.0 | 1.0 | 0.00 | 0.00 | 0.00 | 58 | 1007.9 |
| 20260506023457 | 46 | 307 | 0.0 | 1.0 | 0.00 | 0.00 | 0.00 | 58 | 1007.8 |
| 20260506022957 | 46 | 300 | 0.0 | 2.0 | 0.00 | 0.00 | 0.00 | 57 | 1007.7 |
| 20260506022457 | 46 | 300 | 0.0 | 2.0 | 0.00 | 0.00 | 0.00 | 57 | 1007.9 |
| 20260506021957 | 46 | 300 | 0.0 | 3.0 | 0.00 | 0.00 | 0.00 | 57 | 1007.7 |
| 20260506021458 | 47 | 300 | 0.0 | 3.0 | 0.00 | 0.00 | 0.00 | 56 | 1007.6 |
| 20260506020957 | 47 | 296 | 0.0 | 3.0 | 0.00 | 0.00 | 0.00 | 56 | 1007.7 |
| 20260506020500 | 47 | 266 | 1.0 | 3.0 | 0.00 | 0.00 | 0.00 | 55 | 1007.6 |
| 20260506020000 | 47 | 308 | 1.0 | 3.0 | 0.00 | 0.00 | 0.00 | 55 | 1007.4 |
| 20260506015459 | 47 | 320 | 1.0 | 3.0 | 0.00 | 0.00 | 0.00 | 55 | 1007.3 |
| 20260506014959 | 48 | 271 | 1.0 | 3.0 | 0.00 | 0.00 | 0.00 | 55 | 1007.3 |
| 20260506014458 | 48 | 298 | 1.0 | 3.0 | 0.00 | 0.00 | 0.00 | 55 | 1007.3 |
| 20260506013958 | 48 | 304 | 0.0 | 3.0 | 0.00 | 0.00 | 0.00 | 54 | 1007.2 |
| 20260506013458 | 48 | 319 | 0.0 | 3.0 | 0.00 | 0.00 | 0.00 | 54 | 1007.2 |
| 20260506012958 | 48 | 298 | 2.0 | 3.0 | 0.00 | 0.00 | 0.00 | 54 | 1007.1 |
| 20260506012458 | 48 | 309 | 1.0 | 4.0 | 0.00 | 0.00 | 0.00 | 54 | 1007.1 |
| 20260506011958 | 49 | 324 | 1.0 | 4.0 | 0.00 | 0.00 | 0.00 | 54 | 1007.1 |
| 20260506011457 | 49 | 289 | 2.0 | 5.0 | 0.00 | 0.00 | 0.00 | 53 | 1007.1 |
| 20260506011000 | 49 | 322 | 2.0 | 5.0 | 0.00 | 0.00 | 0.00 | 53 | 1007.1 |
| 20260506010458 | 49 | 299 | 2.0 | 4.0 | 0.00 | 0.00 | 0.00 | 53 | 1006.9 |
| 20260506010001 | 49 | 322 | 1.0 | 4.0 | 0.00 | 0.00 | 0.00 | 53 | 1006.8 |
| 20260506005458 | 49 | 290 | 1.0 | 5.0 | 0.00 | 0.00 | 0.00 | 52 | 1006.7 |
| 20260506004958 | 50 | 251 | 1.0 | 5.0 | 0.00 | 0.00 | 0.00 | 52 | 1006.7 |
| 20260506004458 | 50 | 321 | 1.0 | 4.0 | 0.00 | 0.00 | 0.00 | 52 | 1006.7 |
| 20260506004000 | 50 | 289 | 1.0 | 4.0 | 0.00 | 0.00 | 0.00 | 52 | 1006.8 |
| 20260506003459 | 50 | 257 | 1.0 | 4.0 | 0.00 | 0.00 | 0.00 | 52 | 1006.7 |
| 20260506002959 | 50 | 290 | 2.0 | 4.0 | 0.00 | 0.00 | 0.00 | 51 | 1006.8 |
| 20260506002459 | 50 | 294 | 1.0 | 5.0 | 0.00 | 0.00 | 0.00 | 51 | 1006.8 |
| 20260506001958 | 50 | 318 | 3.0 | 4.0 | 0.00 | 0.00 | 0.00 | 51 | 1006.8 |
| 20260506001458 | 51 | 282 | 2.0 | 5.0 | 0.00 | 0.00 | 0.00 | 51 | 1006.7 |
| 20260506000958 | 51 | 266 | 1.0 | 4.0 | 0.00 | 0.00 | 0.00 | 52 | 1006.7 |
| 20260506000458 | 51 | 271 | 2.0 | 4.0 | 0.00 | 0.00 | 0.00 | 51 | 1006.6 |
| 20260505235958 | 51 | 306 | 2.0 | 5.0 | 0.00 | 0.00 | 0.00 | 51 | 1006.6 |
| 20260505235457 | 51 | 305 | 2.0 | 5.0 | 0.00 | 0.00 | 0.00 | 51 | 1006.7 |
| 20260505224957 | 53 | 305 | 2.0 | 6.0 | 0.00 | 0.00 | 0.00 | 47 | 1006.5 |
| 20260505224457 | 53 | 315 | 2.0 | 9.0 | 0.00 | 0.00 | 0.00 | 46 | 1006.4 |
| 20260505223956 | 52 | 308 | 3.0 | 9.0 | 0.00 | 0.00 | 0.00 | 46 | 1006.5 |
| 20260505223458 | 53 | 313 | 3.0 | 10.0 | 0.00 | 0.00 | 0.00 | 47 | 1006.6 |
| 20260505222958 | 53 | 285 | 3.0 | 10.0 | 0.00 | 0.00 | 0.00 | 45 | 1006.4 |
| 20260505222457 | 53 | 326 | 4.0 | 10.0 | 0.00 | 0.00 | 0.00 | 46 | 1006.6 |
| 20260505221957 | 52 | 307 | 3.0 | 10.0 | 0.00 | 0.00 | 0.00 | 46 | 1006.4 |
| 20260505221457 | 53 | 349 | 5.0 | 10.0 | 0.00 | 0.00 | 0.00 | 45 | 1006.4 |
| 20260505220957 | 52 | 305 | 4.0 | 11.0 | 0.00 | 0.00 | 0.00 | 45 | 1006.4 |
| 20260505220456 | 52 | 311 | 4.0 | 12.0 | 0.00 | 0.00 | 0.00 | 46 | 1006.4 |
| 20260505215957 | 53 | 341 | 4.0 | 13.0 | 0.00 | 0.00 | 0.00 | 46 | 1006.4 |
| 20260505215457 | 53 | 261 | 5.0 | 13.0 | 0.00 | 0.00 | 0.00 | 44 | 1006.5 |
| 20260505214957 | 53 | 289 | 3.0 | 11.0 | 0.00 | 0.00 | 0.00 | 45 | 1006.6 |
| 20260505214457 | 53 | 249 | 3.0 | 14.0 | 0.00 | 0.00 | 0.00 | 46 | 1006.6 |
| 20260505213957 | 53 | 316 | 4.0 | 15.0 | 0.00 | 0.00 | 0.00 | 44 | 1006.6 |
| 20260505213458 | 54 | 328 | 5.0 | 12.0 | 0.00 | 0.00 | 0.00 | 46 | 1006.6 |
| 20260505212957 | 53 | 292 | 5.0 | 11.0 | 0.00 | 0.00 | 0.00 | 43 | 1006.4 |
| 20260505212456 | 54 | 339 | 4.0 | 15.0 | 0.00 | 0.00 | 0.00 | 44 | 1006.4 |
| 20260505211958 | 54 | 271 | 6.0 | 15.0 | 0.00 | 0.00 | 0.00 | 45 | 1006.5 |
| 20260505211457 | 54 | 336 | 4.0 | 12.0 | 0.00 | 0.00 | 0.00 | 47 | 1006.5 |
| 20260505210958 | 54 | 345 | 7.0 | 12.0 | 0.00 | 0.00 | 0.00 | 45 | 1006.5 |
| 20260505210457 | 55 | 321 | 3.0 | 11.0 | 0.00 | 0.00 | 0.00 | 46 | 1006.6 |
| 20260505205958 | 54 | 271 | 5.0 | 11.0 | 0.00 | 0.00 | 0.00 | 45 | 1006.4 |
| 20260505205457 | 54 | 276 | 5.0 | 14.0 | 0.00 | 0.00 | 0.00 | 44 | 1006.5 |
| 20260505204956 | 55 | 311 | 3.0 | 16.0 | 0.00 | 0.00 | 0.00 | 46 | 1006.6 |
| 20260505204457 | 54 | 337 | 7.0 | 16.0 | 0.00 | 0.00 | 0.00 | 44 | 1006.5 |
| 20260505203957 | 55 | 332 | 4.0 | 12.0 | 0.00 | 0.00 | 0.00 | 46 | 1006.6 |
| 20260505203457 | 55 | 305 | 3.0 | 10.0 | 0.00 | 0.00 | 0.00 | 47 | 1006.6 |
| 20260505202957 | 55 | 288 | 4.0 | 11.0 | 0.00 | 0.00 | 0.00 | 46 | 1006.7 |
| 20260505202457 | 55 | 205 | 4.0 | 9.0 | 0.00 | 0.00 | 0.00 | 47 | 1006.7 |
| 20260505201958 | 55 | 238 | 4.0 | 9.0 | 0.00 | 0.00 | 0.00 | 45 | 1006.8 |
| 20260505201458 | 55 | 307 | 3.0 | 15.0 | 0.00 | 0.00 | 0.00 | 46 | 1006.7 |
| 20260505200957 | 55 | 304 | 5.0 | 15.0 | 0.00 | 0.00 | 0.00 | 46 | 1006.8 |
| 20260505200457 | 55 | 302 | 5.0 | 12.0 | 0.00 | 0.00 | 0.00 | 45 | 1006.6 |
| 20260505195957 | 54 | 293 | 5.0 | 14.0 | 0.00 | 0.00 | 0.00 | 42 | 1006.6 |
| 20260505195456 | 55 | 336 | 6.0 | 14.0 | 0.00 | 0.00 | 0.00 | 42 | 1006.5 |
| 20260505194957 | 56 | 305 | 5.0 | 10.0 | 0.00 | 0.00 | 0.00 | 45 | 1006.5 |
| 20260505194457 | 55 | 287 | 4.0 | 11.0 | 0.00 | 0.00 | 0.00 | 44 | 1006.6 |
| 20260505190957 | 56 | 231 | 4.0 | 17.0 | 0.00 | 0.00 | 0.00 | 41 | 1006.3 |
| 20260505190456 | 56 | 234 | 6.0 | 17.0 | 0.00 | 0.00 | 0.00 | 44 | 1006.2 |
| 20260505185957 | 55 | 333 | 8.0 | 14.0 | 0.00 | 0.00 | 0.00 | 40 | 1006.2 |
| 20260505185457 | 55 | 226 | 7.0 | 16.0 | 0.00 | 0.00 | 0.00 | 42 | 1006.2 |
| 20260505184957 | 55 | 229 | 7.0 | 16.0 | 0.00 | 0.00 | 0.00 | 40 | 1006.0 |
| 20260505184457 | 56 | 322 | 5.0 | 13.0 | 0.00 | 0.00 | 0.00 | 42 | 1006.1 |
| 20260505183957 | 56 | 315 | 5.0 | 15.0 | 0.00 | 0.00 | 0.00 | 41 | 1005.9 |
| 20260505183457 | 56 | 249 | 7.0 | 15.0 | 0.00 | 0.00 | 0.00 | 39 | 1005.8 |
| 20260505182957 | 56 | 245 | 7.0 | 15.0 | 0.00 | 0.00 | 0.00 | 38 | 1006.0 |
| 20260505182457 | 57 | 235 | 4.0 | 13.0 | 0.00 | 0.00 | 0.00 | 42 | 1006.0 |
| 20260505181957 | 56 | 307 | 4.0 | 16.0 | 0.00 | 0.00 | 0.00 | 45 | 1006.1 |
| 20260505181457 | 57 | 228 | 5.0 | 16.0 | 0.00 | 0.00 | 0.00 | 39 | 1006.1 |
| 20260505180957 | 58 | 286 | 6.0 | 15.0 | 0.00 | 0.00 | 0.00 | 39 | 1006.0 |
| 20260505180457 | 57 | 238 | 5.0 | 15.0 | 0.00 | 0.00 | 0.00 | 39 | 1005.8 |
| 20260505175957 | 57 | 276 | 7.0 | 14.0 | 0.00 | 0.00 | 0.00 | 39 | 1005.7 |
| 20260505175457 | 57 | 228 | 5.0 | 13.0 | 0.00 | 0.00 | 0.00 | 39 | 1005.7 |
| 20260505174957 | 58 | 320 | 5.0 | 13.0 | 0.00 | 0.00 | 0.00 | 39 | 1005.5 |
| 20260505174456 | 58 | 220 | 3.0 | 10.0 | 0.00 | 0.00 | 0.00 | 41 | 1005.4 |
| 20260505173956 | 58 | 325 | 2.0 | 9.0 | 0.00 | 0.00 | 0.00 | 44 | 1005.3 |
| 20260505173457 | 57 | 230 | 5.0 | 11.0 | 0.00 | 0.00 | 0.00 | 42 | 1005.3 |
| 20260505172956 | 57 | 354 | 4.0 | 11.0 | 0.00 | 0.00 | 0.00 | 38 | 1005.3 |
| 20260505172457 | 57 | 342 | 5.0 | 11.0 | 0.00 | 0.00 | 0.00 | 36 | 1005.3 |
| 20260505171957 | 58 | 330 | 4.0 | 10.0 | 0.00 | 0.00 | 0.00 | 37 | 1005.3 |
| 20260505171456 | 58 | 209 | 4.0 | 10.0 | 0.00 | 0.00 | 0.00 | 41 | 1005.3 |
| 20260505170957 | 58 | 229 | 5.0 | 10.0 | 0.00 | 0.00 | 0.00 | 35 | 1005.4 |
| 20260505170457 | 58 | 188 | 3.0 | 12.0 | 0.00 | 0.00 | 0.00 | 38 | 1005.3 |
| 20260505165458 | 58 | 293 | 5.0 | 9.0 | 0.00 | 0.00 | 0.00 | 39 | 1005.4 |
| 20260505164958 | 57 | 317 | 6.0 | 9.0 | 0.00 | 0.00 | 0.00 | 37 | 1005.3 |
| 20260505164458 | 56 | 291 | 3.0 | 11.0 | 0.00 | 0.00 | 0.00 | 39 | 1005.2 |
| 20260505163958 | 57 | 255 | 5.0 | 15.0 | 0.00 | 0.00 | 0.00 | 39 | 1005.2 |
| 20260505163459 | 57 | 310 | 4.0 | 15.0 | 0.00 | 0.00 | 0.00 | 41 | 1005.4 |
| 20260505162958 | 57 | 271 | 6.0 | 13.0 | 0.00 | 0.00 | 0.00 | 39 | 1005.4 |
| 20260505151959 | 54 | 271 | 3.0 | 11.0 | 0.00 | 0.00 | 0.00 | 53 | 1005.9 |
| 20260505151457 | 53 | 224 | 4.0 | 9.0 | 0.00 | 0.00 | 0.00 | 54 | 1006.1 |
| 20260505150958 | 52 | 297 | 3.0 | 9.0 | 0.00 | 0.00 | 0.00 | 53 | 1006.1 |
| 20260505150458 | 52 | 262 | 3.0 | 9.0 | 0.00 | 0.00 | 0.00 | 55 | 1006.1 |
| 20260505140458 | 50 | 301 | 5.0 | 11.0 | 0.00 | 0.00 | 0.00 | 61 | 1005.3 |